This demonstration page uses our WeatherBlox Daily Observations layout. Learn more.

Left ArrowRight Arrow

Hourly Observations for April 12, 2019

Temp ( °F °C ) Dew Point ( °F °C ) Humidity (%) Winds ( mph kmh ) Pressure ( in mb ) Visibility ( mi km ) Precip ( " mm )
12:53 am 00:53 Clear 52 11.1 13 -10.6 21 21 NNW 5 7 29.69 1006 10 16 0.00 0.00
1:53 am 01:53 Clear 48 8.9 15 -9.4 27 27 NNW 7 11 29.68 1005 10 16 0.00 0.00
2:53 am 02:53 Clear 45 7.2 15 -9.4 30 30 Calm 29.67 1005 10 16 0.00 0.00
3:53 am 03:53 Clear 42 5.6 19 -7.2 40 40 Calm 29.67 1005 10 16 0.00 0.00
4:53 am 04:53 Clear 39 3.9 20 -6.7 46 46 N 7 11 29.68 1005 10 16 0.00 0.00
5:53 am 05:53 Clear 39 3.9 22 -5.6 50 50 E 3 6 29.70 1006 10 16 0.00 0.00
6:53 am 06:53 Clear 35 1.7 22 -5.6 59 59 NNE 6 9 29.71 1006 10 16 0.00 0.00
7:53 am 07:53 Sunny 38 3.3 23 -5 55 55 ESE 3 6 29.74 1007 10 16 0.00 0.00
8:53 am 08:53 Sunny 47 8.3 18 -7.8 31 31 SSE 3 6 29.74 1007 10 16 0.00 0.00
9:53 am 09:53 Sunny 56 13.3 16 -8.9 21 21 Calm 29.73 1007 10 16 0.00 0.00
10:53 am 10:53 Sunny 62 16.7 15 -9.4 16 16 W 3 6 29.72 1006 10 16 0.00 0.00
11:53 am 11:53 Sunny 67 19.4 15 -9.4 13 13 VRB 7 11 29.70 1006 10 16 0.00 0.00
12:53 pm 12:53 Sunny 70 21.1 11 -11.7 10 10 VRB 5 7 29.67 1005 10 16 0.00 0.00
1:53 pm 13:53 Sunny 73 22.8 8 -13.3 8 8 VRB 5 7 29.64 1004 10 16 0.00 0.00
2:53 pm 14:53 Sunny 73 22.8 7 -13.9 7 7 SW 9 15 29.61 1003 10 16 0.00 0.00
3:53 pm 15:53 Sunny 74 23.3 8 -13.3 8 8 W 7 11 29.60 1002 10 16 0.00 0.00
4:53 pm 16:53 Sunny 74 23.3 8 -13.3 8 8 W 12 19 29.58 1002 10 16 0.00 0.00
5:53 pm 17:53 Sunny 74 23.3 9 -12.8 8 8 SW 14 22 29.58 1002 10 16 0.00 0.00
6:53 pm 18:53 Sunny 71 21.7 9 -12.8 9 9 N 10 17 29.57 1001 10 16 0.00 0.00
7:53 pm 19:53 Sunny 69 20.6 14 -10 12 12 N 10 17 29.56 1001 10 16 0.00 0.00
8:53 pm 20:53 Clear 67 19.4 13 -10.6 12 12 NE 10 17 29.58 1002 10 16 0.00 0.00
9:53 pm 21:53 Partly Cloudy 67 19.4 18 -7.8 15 15 NE 17 28 29.57 1001 10 16 0.00 0.00
10:53 pm 22:53 Cloudy 66 18.9 36 2.2 33 33 ENE 22 35 29.59 1002 10 16 0.00 0.00
11:22 pm 23:22 Cloudy with Nearby Thunderstorms 58 14.4 44 6.7 60 60 ENE 29 46 29.67 1005 9 14 0.00 0.03
11:29 pm 23:29 Windy with Storms Likely 57 13.9 44 6.7 62 62 NE 29 46 29.66 1004 10 16 0.00 0.03
11:53 pm 23:53 Windy with Storms Likely 54 12.2 46 7.8 75 75 NE 23 37 29.65 1004 10 16 0.02 0.51

Powered by AerisWeather